Weather History for South Hill, VA

Change the Weather History Date:

Tuesday, June 17, 2014

  Actual Average (KEMV) Record (KEMV)
Temperature  
Mean Temperature 82 °F -  
Max Temperature 95 °F 86 °F 99 °F (1991)
Min Temperature 69 °F 62 °F 50 °F (2012)
Cooling Degree Days 17    
Growing Degree Days 32 (Base 50)    
Moisture  
Dew Point 72 °F    
Average Humidity 77    
Maximum Humidity 100    
Minimum Humidity 41    
Precipitation  
Precipitation 0.00 in - - ()
Sea Level Pressure  
Sea Level Pressure 30.15 in    
Wind  
Wind Speed 3 mph (SSW)    
Max Wind Speed 8 mph    
Max Gust Speed -    
Visibility 10 miles    
Events Thunderstorm    
Averages and records for this station are not official NWS values.
T = Trace of Precipitation, MM = Missing Value Source: NWS Daily Summary

Daily Weather History Graph

Daily Weather History Graph

Search for Another Location

Airport:

Trip Planner

Search our weather history database for the weather conditions in past years. The results will help you decide how hot, cold, wet, or windy it might be!

Date:

Astronomy

Jun. 17, 2014 Rise Set
Actual Time 5:53 AM EDT 8:33 PM EDT
Civil Twilight 5:22 AM EDT 9:03 PM EDT
Nautical Twilight 4:44 AM EDT 9:42 PM EDT
Astronomical Twilight 4:01 AM EDT 10:24 PM EDT
Moon No Moon Rise 10:58 AM EDT (6/17)
Length of Visible Light 15h 41m
Length of Day
14h 40m
Waning Gibbous, 73% of the Moon is Illuminated
Jun 17
Waning Gibbous
Jun 19
Last Quarter
Jun 27
New
Jul 5
First Quarter
Jul 12
Full

Hourly Weather History & Observations

Time (EDT) Temp. Heat Index Dew Point Humidity Pressure Visibility Wind Dir Wind Speed Gust Speed Precip Events Conditions
12:15 AM 71.6 °F - 71.6 °F 100% 30.16 in 10.0 mi Calm Calm - N/A   Clear
12:35 AM 71.6 °F - 71.6 °F 100% 30.17 in 10.0 mi South 4.6 mph - N/A   Clear
12:55 AM 71.6 °F - 71.6 °F 100% 30.16 in 10.0 mi South 3.5 mph - N/A   Clear
1:15 AM 71.6 °F - 71.6 °F 100% 30.16 in 10.0 mi SSW 3.5 mph - N/A   Clear
1:35 AM 71.6 °F - 71.6 °F 100% 30.16 in 10.0 mi SSW 5.8 mph - N/A   Clear
2:15 AM 71.6 °F - 71.6 °F 100% 30.16 in 7.0 mi SSW 3.5 mph - N/A   Clear
2:35 AM 71.6 °F - 71.6 °F 100% 30.16 in 7.0 mi SSW 3.5 mph - N/A   Clear
2:55 AM 71.6 °F - 71.6 °F 100% 30.15 in 10.0 mi SSW 5.8 mph - N/A   Clear
3:15 AM 71.6 °F - 71.6 °F 100% 30.15 in 10.0 mi Calm Calm - N/A   Clear
3:35 AM 71.6 °F - 71.6 °F 100% 30.15 in 10.0 mi Calm Calm - N/A   Clear
3:55 AM 71.6 °F - 71.6 °F 100% 30.15 in 10.0 mi Calm Calm - N/A   Clear
4:15 AM 71.6 °F - 71.6 °F 100% 30.15 in 10.0 mi Calm Calm - N/A   Clear
4:35 AM 71.6 °F - 71.6 °F 100% 30.15 in 10.0 mi South 3.5 mph - N/A   Clear
4:55 AM 69.8 °F - 69.8 °F 100% 30.14 in 7.0 mi SSW 4.6 mph - N/A   Clear
5:15 AM 69.8 °F - 69.8 °F 100% 30.16 in 7.0 mi SSW 3.5 mph - N/A   Clear
5:35 AM 69.8 °F - 69.8 °F 100% 30.16 in 7.0 mi SSW 3.5 mph - N/A   Clear
5:55 AM 69.8 °F - 69.8 °F 100% 30.16 in 7.0 mi South 3.5 mph - N/A   Clear
6:15 AM 69.8 °F - 69.8 °F 100% 30.17 in 7.0 mi SSW 4.6 mph - N/A   Clear
6:35 AM 69.8 °F - 69.8 °F 100% 30.17 in 5.0 mi Calm Calm - N/A   Clear
6:55 AM 71.6 °F - 71.6 °F 100% 30.18 in 7.0 mi SSW 3.5 mph - N/A   Clear
7:15 AM 73.4 °F - 71.6 °F 94% 30.19 in 10.0 mi SW 3.5 mph - N/A   Clear
7:35 AM 75.2 °F - 73.4 °F 94% 30.19 in 10.0 mi SW 4.6 mph - N/A   Clear
7:55 AM 77.0 °F - 73.4 °F 89% 30.19 in 10.0 mi SSW 5.8 mph - N/A   Clear
8:35 AM 78.8 °F - 73.4 °F 83% 30.19 in 10.0 mi SW 5.8 mph - N/A   Clear
8:55 AM 80.6 °F 85.4 °F 73.4 °F 79% 30.20 in 10.0 mi WSW 5.8 mph - N/A   Clear
9:15 AM 82.4 °F 88.2 °F 73.4 °F 74% 30.20 in 10.0 mi WSW 5.8 mph - N/A   Clear
9:35 AM 82.4 °F 87.2 °F 71.6 °F 70% 30.20 in 10.0 mi Calm Calm - N/A   Clear
9:55 AM 84.2 °F 89.6 °F 71.6 °F 66% 30.19 in 10.0 mi West 5.8 mph - N/A   Clear
10:15 AM 84.2 °F 89.6 °F 71.6 °F 66% 30.19 in 10.0 mi West 8.1 mph - N/A   Clear
10:35 AM 86.0 °F 93.4 °F 73.4 °F 66% 30.18 in 10.0 mi SSW 6.9 mph - N/A   Clear
10:55 AM 87.8 °F 95.6 °F 73.4 °F 62% 30.19 in 10.0 mi WSW 3.5 mph - N/A   Clear
11:15 AM 87.8 °F 95.6 °F 73.4 °F 62% 30.19 in 10.0 mi SW 3.5 mph - N/A   Clear
11:35 AM 87.8 °F 95.6 °F 73.4 °F 62% 30.19 in 10.0 mi WSW 3.5 mph - N/A   Clear
11:55 AM 89.6 °F 98.2 °F 73.4 °F 59% 30.18 in 10.0 mi Calm Calm - N/A   Clear
12:15 PM 89.6 °F 98.2 °F 73.4 °F 59% 30.18 in 10.0 mi West 4.6 mph - N/A   Clear
12:35 PM 89.6 °F 98.2 °F 73.4 °F 59% 30.18 in 10.0 mi SW 3.5 mph - N/A   Clear
12:55 PM 91.4 °F 100.1 °F 73.4 °F 55% 30.17 in 10.0 mi SSW 5.8 mph - N/A   Clear
1:15 PM 91.4 °F 100.1 °F 73.4 °F 55% 30.17 in 10.0 mi SW 3.5 mph - N/A   Clear
1:35 PM 91.4 °F 100.1 °F 73.4 °F 55% 30.16 in 10.0 mi SSW 5.8 mph - N/A   Clear
2:15 PM 91.4 °F 100.1 °F 73.4 °F 55% 30.16 in 10.0 mi Calm Calm - N/A   Clear
2:35 PM 91.4 °F 98.4 °F 71.6 °F 52% 30.14 in 10.0 mi Calm Calm - N/A   Clear
2:55 PM 93.2 °F 100.5 °F 71.6 °F 49% 30.13 in 10.0 mi SSW 6.9 mph - N/A Thunderstorm Clear
3:15 PM 93.2 °F 98.8 °F 69.8 °F 46% 30.13 in 10.0 mi Calm Calm - N/A Thunderstorm Clear
3:35 PM 93.2 °F 98.8 °F 69.8 °F 46% 30.12 in 10.0 mi SW 4.6 mph - N/A Thunderstorm Clear
3:55 PM 95.0 °F 99.5 °F 68.0 °F 41% 30.12 in 10.0 mi SSW 5.8 mph - N/A   Clear
4:15 PM 93.2 °F 96.2 °F 66.2 °F 41% 30.12 in 10.0 mi South 4.6 mph - N/A   Clear
4:35 PM 93.2 °F 98.8 °F 69.8 °F 46% 30.11 in 10.0 mi SW 3.5 mph - N/A   Clear
4:55 PM 89.6 °F 96.2 °F 71.6 °F 55% 30.11 in 10.0 mi SW 4.6 mph - N/A   Scattered Clouds
5:15 PM 87.8 °F 95.6 °F 73.4 °F 62% 30.11 in 10.0 mi South 8.1 mph - N/A   Clear
5:35 PM 87.8 °F 95.6 °F 73.4 °F 62% 30.11 in 10.0 mi South 5.8 mph - N/A   Clear
5:55 PM 87.8 °F 95.6 °F 73.4 °F 62% 30.11 in 10.0 mi South 3.5 mph - N/A   Clear
6:15 PM 87.8 °F 95.6 °F 73.4 °F 62% 30.11 in 10.0 mi South 4.6 mph - N/A   Scattered Clouds
6:55 PM 89.6 °F 98.2 °F 73.4 °F 59% 30.11 in 10.0 mi South 5.8 mph - N/A   Clear
7:15 PM 87.8 °F 93.8 °F 71.6 °F 58% 30.11 in 10.0 mi South 4.6 mph - N/A   Clear
7:35 PM 87.8 °F 95.6 °F 73.4 °F 62% 30.11 in 10.0 mi SSW 3.5 mph - N/A   Clear
7:55 PM 84.2 °F 90.9 °F 73.4 °F 70% 30.11 in 10.0 mi Calm Calm - N/A   Clear
8:15 PM 82.4 °F 89.5 °F 75.2 °F 79% 30.11 in 10.0 mi Calm Calm - N/A   Clear
8:35 PM 82.4 °F 89.5 °F 75.2 °F 79% 30.11 in 10.0 mi Calm Calm - N/A   Clear
8:55 PM 80.6 °F 86.2 °F 75.2 °F 84% 30.12 in 10.0 mi Calm Calm - N/A   Clear
9:15 PM 78.8 °F - 78.8 °F 100% 30.12 in 10.0 mi SSW 3.5 mph - N/A   Clear
9:35 PM 80.6 °F 86.2 °F 75.2 °F 84% 30.13 in 10.0 mi SSW 8.1 mph - N/A   Clear
9:55 PM 80.6 °F 86.2 °F 75.2 °F 84% 30.14 in 10.0 mi SSW 5.8 mph - N/A   Clear
10:15 PM 80.6 °F 85.4 °F 73.4 °F 79% 30.14 in 10.0 mi SSW 5.8 mph - N/A   Clear
10:35 PM 80.6 °F 85.4 °F 73.4 °F 79% 30.13 in 10.0 mi SSW 5.8 mph - N/A   Clear
10:55 PM 80.6 °F 85.4 °F 73.4 °F 79% 30.13 in 10.0 mi SSW 4.6 mph - N/A   Clear
11:15 PM 78.8 °F - 71.6 °F 78% 30.13 in 10.0 mi SSW 3.5 mph - N/A   Clear
11:35 PM 77.0 °F - 71.6 °F 83% 30.13 in 10.0 mi SSW 3.5 mph - N/A   Clear
11:55 PM 75.2 °F - 71.6 °F 89% 30.13 in 10.0 mi SW 3.5 mph - N/A   Clear